Regional Weather Roundup
Issued by NWS

Home | Current Version | Previous Version | Text Only | Print | Product List | Glossary Off
Versions: 1 2 3 4 5 6 7 8 9 10 11 12 13 14 15 16 17 18 19 20 21 22 23 24 25 26 27 28 29 30 31 32 33 34 35 36 37 38 39 40 41 42 43 44 45 46 47 48 49 50

000
ASUS43 KIND 240659
RWRIN

WEATHER ROUNDUP FOR INDIANA
NATIONAL WEATHER SERVICE INDIANAPOLIS IN
300 AM EDT MON APR 24 2017

NOTE: "FAIR" INDICATES FEW OR NO CLOUDS BELOW 12,000 FEET WITH NO
SIGNIFICANT WEATHER AND/OR OBSTRUCTIONS TO VISIBILITY.

* - STATION DOES NOT REPORT WEATHER SUCH AS PRECIPITATION OR FOG.

+ - STATION NOT QUALITY CONTROLLED BY THE NATIONAL WEATHER SERVICE.
    USE DATA WITH CAUTION...ESPECIALLY DEWPOINT AND RELATIVE
    HUMIDITY OBSERVATIONS.

INZ001>003-010>013-019-020-240800-
NORTHWEST INDIANA

CITY           SKY/WX    TMP DP  RH WIND       PRES   REMARKS
KNOX *+        CLEAR     41  19  42 N3        30.02F
MONTICELLO +   CLEAR     49  32  51 NE3       30.00S

$$

LMZ046-743>745-240800-
SOUTHERN LAKE MICHIGAN

STATION/POSITION TIME  TEMP    WIND        PRES    WAVE
                       AIR SEA DIR/SP/G            HT
                 (UTC) (F)     (DEG/KT/KT) (MB)    (FT)
BURNS HARBOR     0640   46     360/  5/  6 1017.3F
MICHIGAN CITY    0630   47     330/  6/  6   N/A

$$

INZ004-005-014>016-021>024-240800-
NORTH CENTRAL INDIANA

CITY           SKY/WX    TMP DP  RH WIND       PRES   REMARKS
GOSHEN         CLOUDY    46  36  68 NE3       30.02F
SOUTH BEND     CLEAR     40  32  73 N3        30.03F
WARSAW +       PTCLDY    43  37  81 CALM      30.01F

$$

INZ006>009-017-018-025>027-240800-
NORTHEAST INDIANA

CITY           SKY/WX    TMP DP  RH WIND       PRES   REMARKS
ANGOLA *+      CLEAR     41  39  93 CALM      30.02F
FORT WAYNE     PTCLDY    45  30  55 NE5       30.01F
KENDALLVILLE + CLEAR     45  36  72 CALM      30.03F

$$

INZ028-029-035-036-043>045-051>053-240800-
WEST CENTRAL INDIANA

CITY           SKY/WX    TMP DP  RH WIND       PRES   REMARKS
CRAWFORDSVL +  CLEAR     48  32  52 E7        29.98F
LAFAYETTE      CLEAR     45  38  76 CALM      30.00F
TERRE HAUTE    CLEAR     44  32  62 N3        29.98S

$$

INZ030>032-037>040-046>048-054>057-064-065-240800-
CENTRAL INDIANA

CITY           SKY/WX    TMP DP  RH WIND       PRES   REMARKS
INDIANAPOLIS   CLEAR     49  33  54 NE7       29.98S
-EAGLE CREEK   CLEAR     54  28  36 NE5       29.97F
KOKOMO +       CLEAR     44  33  65 E3        30.01F
SHELBYVILLE    CLEAR     51  33  50 NE6       29.97R

$$

INZ033-034-041-042-049-050-058-059-240800-
EAST CENTRAL INDIANA

CITY           SKY/WX    TMP DP  RH WIND       PRES   REMARKS
MUNCIE         CLEAR     44  31  60 E5        29.99F
RICHMOND +     CLEAR     45  36  70 NE10      29.97F

$$

INZ060-061-067>069-081>083-085>088-240800-
SOUTHWEST INDIANA

CITY           SKY/WX    TMP DP  RH WIND       PRES   REMARKS
EVANSVILLE     CLEAR     54  36  50 NE9       29.90F
HUNTINGBURG *+ CLEAR     54  37  52 NE6       29.90F

$$

INZ062-063-066-070>080-084-089>092-240800-
SOUTH CENTRAL AND SOUTHEAST INDIANA

CITY           SKY/WX    TMP DP  RH WIND       PRES   REMARKS
BLOOMINGTON    CLEAR     50  32  50 N7        29.96S
MADISON *+     MOCLDY    54  37  54 NE8       29.94F
SEYMOUR +      CLEAR     48  37  66 NE3       29.95F

$$





USA.gov is the U.S. government's official web portal to all federal, state and local government web resources and services.